SCP
0 1 1 1 0 0 0 0 1 1 1 1 1 1 1 0 0 0 0 0 0 0 0 0 0 0 0 0 0 0 0 0 0 0 0 0 0 0 0 0 0 0 0
1 1 1 1 1 0 0 0 1 1 1 1 1 1 0 0 0 0 0 0 0 0 0 0 0 0 0 0 0 0 0 0 0 0 0 0 0 0 0 0 0 0 0
1 1 1 1 1 1 1 1 1 1 1 1 1 0 0 0 0 0 0 0 0 0 0 0 0 0 0 0 0 0 0 0 0 0 0 0 0 0 0 0 0 0 0
1 1 1 1 1 1 1 1 1 1 1 1 1 0 0 0 0 0 0 0 0 0 0 0 0 0 0 0 0 0 0 0 0 0 0 0 0 0 0 0 0 0 0
1 1 1 1 1 1 1 1 1 1 1 1 1 1 0 0 0 0 0 0 0 0 0 0 0 0 0 0 0 0 0 0 0 0 0 0 0 0 0 0 0 0 0
1 1 1 2 2 2 2 1 1 1 1 1 1 1 1 1 1 1 0 0 0 0 0 0 0 0 0 0 0 0 0 0 0 0 0 0 0 0 0 0 0 0 0
1 1 2 2 2 2 2 2 2 2 2 1 1 1 1 1 1 1 0 0 0 0 0 0 0 0 0 0 0 0 0 0 0 0 0 0 0 0 0 0 0 0 0
1 2 2 2 3 3 3 2 2 2 2 2 1 1 1 1 1 1 0 0 0 0 0 0 0 0 0 0 0 0 0 0 0 0 0 0 0 0 0 0 0 0 0
2 2 2 2 3 3 3 3 2 2 2 2 2 2 1 1 1 1 0 0 0 0 0 0 0 0 0 0 0 0 0 0 0 0 0 0 0 0 0 0 0 1 1
2 2 2 2 3 3 3 3 2 2 2 2 2 2 1 1 1 1 1 1 0 0 0 0 0 0 0 0 0 0 0 1 1 0 0 0 0 0 1 1 1 1 1
2 2 2 3 3 3 3 3 2 2 2 2 2 2 2 1 1 1 1 1 1 0 0 0 0 0 0 1 1 1 1 1 1 1 1 1 1 1 1 1 1 1 1
3 3 3 3 3 3 3 3 3 3 2 2 2 2 2 2 1 1 1 1 1 1 1 0 0 1 1 1 1 1 1 1 1 1 1 1 1 1 1 1 1 1 1
3 3 3 3 3 3 3 3 3 3 3 3 3 3 2 2 2 1 1 1 1 1 1 1 1 1 1 1 1 1 1 1 1 1 1 1 1 1 1 1 1 1 1
3 3 3 3 4 4 4 4 4 4 3 3 3 3 3 3 2 2 1 2 2 1 1 1 1 1 1 1 1 1 1 1 1 1 1 1 1 1 1 1 1 1 1
3 3 4 4 4 4 4 4 4 4 4 3 3 3 3 3 3 2 2 2 2 1 1 1 1 1 1 1 1 1 1 1 1 1 1 1 1 1 1 1 1 1 1
3 4 5 5 5 5 4 3 4 4 4 3 3 3 3 3 3 2 2 2 1 1 1 1 1 1 1 1 1 1 1 1 1 1 1 1 1 1 1 1 1 1 1
3 4 6 7 6 5 4 3 3 3 3 4 4 4 4 4 3 2 2 1 1 1 1 1 1 1 1 1 1 1 1 1 1 1 1 1 1 1 1 1 1 1 1
4 5 7 7 6 4 3 3 3 3 4 5 5 5 5 5 4 2 1 1 1 1 1 1 1 1 1 1 1 1 1 1 1 1 1 1 1 1 1 1 1 1 1
4 4 5 4 3 3 3 3 4 5 5 5 5 4 4 4 3 2 1 1 0 0 1 1 1 0 0 0 0 0 0 0 0 0 0 0 1 1 1 1 1 1 1
2 3 3 2 1 1 2 3 5 5 6 4 3 2 2 2 2 1 1 1 0 0 0 0 0 0 0 0 0 0 0 0 0 0 0 0 0 0 1 1 1 1 1
1 2 3 2 1 1 1 3 3 4 4 3 2 1 1 1 1 1 1 0 0 0 0 0 0 0 0 0 0 0 0 0 0 0 0 0 0 0 0 0 1 1 1
1 2 2 2 1 0 1 1 1 1 1 1 1 1 1 1 1 1 1 0 0 0 0 0 1 0 0 0 0 0 0 0 0 0 0 0 0 0 0 0 0 1 1
1 1 1 1 0 0 0 0 0 0 0 0 0 0 0 1 1 1 0 0 0 0 0 1 1 1 0 0 0 0 0 0 0 0 0 0 0 0 0 0 0 0 0
0 0 0 0 0 0 0 0 0 0 0 0 0 0 0 0 0 0 0 0 0 0 0 0 1 0 0 0 0 0 0 0 0 0 0 0 0 0 0 0 0 0 0
0 0 0 0 0 0 0 0 0 0 0 0 0 0 0 0 0 0 0 0 0 0 0 0 0 0 0 0 0 0 0 0 0 0 0 0 0 0 0 0 0 0 0
0 0 0 0 0 0 0 0 0 0 0 0 0 0 0 0 0 0 0 0 0 0 0 0 0 0 0 0 0 0 0 0 0 0 0 0 0 0 0 0 0 0 0
Wind_Speed
8 10 18 18 17 17 16 16 16 16 16 16 15 15 15 15 15 14 13 12 11 10 9 8 8 7 7 8 9 9 10 11 11 12 12 12 11 11 12 12 12 10 13
13 13 18 19 18 17 17 16 16 16 16 15 15 15 15 14 14 13 13 12 11 10 9 8 8 7 7 8 8 9 9 10 10 11 11 11 11 11 11 11 11 8 12
14 13 15 18 18 17 17 16 16 15 15 15 14 14 14 14 13 13 12 12 11 10 9 8 8 7 7 7 8 8 9 9 9 10 10 6 7 10 11 11 11 11 12
13 10 12 18 18 17 17 16 15 15 14 14 13 13 13 13 12 12 12 11 10 9 9 8 8 7 7 7 7 7 8 8 8 9 4 4 4 9 11 11 11 12 11
11 9 12 20 18 17 16 15 15 14 14 13 13 12 12 12 12 12 11 11 10 9 9 8 8 8 7 7 7 7 7 7 8 6 4 2 0 6 10 11 12 12 12
10 8 11 20 18 17 16 15 14 14 13 13 12 12 12 11 11 11 11 10 10 10 9 9 8 8 8 8 8 8 8 8 7 4 3 3 2 5 10 11 12 12 12
10 8 10 18 18 17 16 15 14 14 13 12 12 12 12 11 11 11 11 11 10 10 10 9 9 9 9 9 9 8 8 9 5 3 3 4 5 7 10 12 13 13 13
12 9 9 17 17 17 16 15 14 13 12 12 12 12 11 11 11 11 11 11 11 11 11 11 11 10 10 10 10 9 9 9 7 6 5 5 7 10 13 14 14 14 15
10 8 6 8 11 14 14 13 12 12 12 12 12 12 12 12 12 12 12 12 12 12 12 12 12 12 12 11 11 11 10 11 7 4 6 4 7 10 14 15 15 16 16
8 8 6 6 6 6 6 10 10 10 11 11 12 12 13 13 13 13 12 12 13 13 13 13 14 13 13 12 12 12 12 11 8 7 5 6 9 10 13 15 16 17 17
9 7 6 6 6 5 4 5 7 8 9 10 10 13 12 6 6 7 11 13 15 15 15 15 16 15 14 13 14 14 12 6 7 6 6 10 12 13 13 14 16 17 17
10 9 6 7 6 5 4 3 2 3 3 4 4 5 4 4 5 8 9 15 16 17 17 17 17 15 12 7 10 12 6 8 7 7 7 13 14 15 14 14 15 17 18
9 8 7 6 6 5 2 1 1 1 1 3 4 5 4 4 4 6 4 7 9 12 9 10 10 7 7 6 6 6 7 7 6 6 8 15 15 16 16 14 14 16 18
9 8 7 6 5 4 3 1 1 2 3 3 5 6 5 4 5 5 5 5 5 4 5 5 4 6 7 8 8 8 8 6 6 5 7 15 15 16 16 15 14 15 17
9 8 7 6 5 3 3 2 2 2 3 4 4 5 6 5 5 5 5 5 5 4 5 5 5 6 6 6 7 8 8 9 8 8 6 13 15 15 15 15 15 16 16
9 8 7 6 5 3 3 2 2 2 3 3 3 5 6 5 5 5 5 5 5 5 5 4 4 4 4 3 5 6 6 7 7 8 7 9 13 13 13 15 16 16 16
7 6 5 4 2 2 2 3 3 2 2 3 3 4 5 5 5 5 4 4 4 4 4 3 3 2 2 2 3 4 4 5 5 7 7 6 7 11 13 14 15 15 16
4 3 2 2 1 2 3 3 3 3 2 3 3 3 5 5 4 4 4 4 4 3 3 3 2 2 2 2 2 3 3 3 5 6 6 6 5 6 9 13 14 14 16
3 2 1 1 0 2 3 3 4 3 3 2 2 3 3 3 4 4 4 4 4 3 3 3 2 2 2 2 2 3 3 3 4 5 6 6 6 6 6 8 12 13 16
3 2 1 1 1 1 2 3 3 3 2 1 2 2 2 2 4 4 4 5 4 3 3 2 3 2 2 2 2 3 3 3 3 4 5 4 4 5 5 6 6 7 12
3 2 2 2 2 2 1 1 2 1 2 2 2 2 2 2 3 4 4 4 4 4 4 4 3 3 2 1 0 2 2 2 2 2 2 2 2 2 3 4 4 4 5
4 3 3 3 3 3 1 1 1 1 1 1 2 2 2 2 3 5 5 4 4 4 4 4 3 3 2 2 2 1 2 3 2 1 1 1 1 2 3 4 4 4 5
3 2 2 2 2 2 2 1 1 1 1 2 2 3 3 3 4 3 3 4 4 4 4 5 5 5 3 2 2 3 2 2 2 2 1 1 2 2 3 4 5 5 6
1 0 2 1 1 1 2 2 2 1 1 2 2 2 3 3 3 2 3 4 4 4 4 5 5 4 4 3 2 2 2 3 1 2 2 2 2 3 4 5 6 6 6
2 1 0 0 0 0 1 2 2 1 0 1 1 2 3 3 3 3 2 2 4 4 5 5 4 5 4 4 4 3 2 1 2 2 3 3 3 3 4 5 5 5 6
4 3 2 2 2 2 1 2 3 3 2 1 1 1 2 2 2 3 3 2 2 2 4 5 5 6 6 5 4 4 4 3 4 4 4 4 4 3 4 4 4 4 4
Wind_Direction
164 162 170 161 155 149 146 142 138 134 132 132 134 138 143 147 151 155 157 159 159 160 158 154 147 141 136 130 127 126 125 127 130 131 132 131 130 127 124 122 119 121 123
152 159 167 162 156 152 149 145 142 139 138 139 140 143 147 151 155 159 160 162 164 165 163 161 157 151 147 142 137 135 134 136 140 140 140 139 138 136 133 128 128 130 130
145 155 163 160 157 154 150 147 145 143 142 143 145 148 151 156 160 163 166 168 170 170 167 165 162 159 156 152 147 145 145 147 148 149 142 135 146 148 143 141 141 138 136
142 149 158 160 158 155 152 149 148 147 147 148 151 154 157 162 166 169 171 173 174 174 173 173 171 167 165 162 158 156 156 157 158 152 126 137 154 162 159 155 153 148 145
138 144 161 160 159 156 153 152 151 152 153 155 158 161 165 169 173 176 177 178 179 180 181 182 181 177 174 172 170 170 170 170 171 153 142 158 206 177 172 167 165 161 156
139 143 162 161 159 157 155 155 156 158 161 164 167 170 174 178 181 184 186 188 190 190 192 194 193 189 187 186 185 185 186 188 184 154 168 191 207 201 186 181 179 175 170
142 146 162 161 161 159 159 160 162 166 170 174 178 182 185 188 192 195 197 199 202 203 203 204 205 203 201 200 199 199 201 205 188 185 198 209 216 221 208 199 193 188 183
146 146 157 163 162 162 163 165 169 173 178 184 189 194 198 201 203 206 208 210 212 214 215 214 214 213 212 212 212 211 212 217 213 211 220 227 231 228 220 211 205 199 193
143 142 145 154 161 164 166 170 174 180 187 194 199 204 209 212 215 217 219 221 222 224 226 226 225 224 222 222 222 223 223 225 222 210 224 226 237 233 224 217 212 207 201
137 140 136 135 135 143 159 175 182 191 199 206 211 214 218 221 223 226 226 229 232 233 235 235 235 233 232 230 230 231 232 234 231 222 227 233 238 236 229 224 219 214 209
150 148 138 128 124 123 133 170 186 203 211 216 221 225 225 226 231 236 236 235 239 241 242 242 240 239 237 236 236 237 238 229 228 228 226 233 237 239 237 230 225 219 215
160 158 146 136 124 122 149 157 175 198 212 218 220 231 229 218 225 238 245 246 246 248 249 248 246 244 242 234 237 239 234 230 230 233 232 234 235 237 238 236 227 223 219
144 146 148 143 132 135 146 155 155 192 225 229 226 226 229 226 229 238 238 253 255 257 255 254 249 237 229 224 223 224 229 232 233 234 236 238 236 235 236 237 231 226 223
135 142 140 143 141 149 145 154 171 198 212 220 225 224 221 225 227 229 233 234 237 244 250 248 238 231 229 226 224 227 230 230 233 232 237 243 241 239 237 235 231 228 226
136 139 145 144 149 156 153 190 211 219 229 227 220 224 222 227 233 235 236 233 233 233 238 241 236 232 230 229 230 233 234 233 236 235 239 245 244 241 239 237 234 230 229
142 148 155 158 161 170 191 214 232 230 227 223 228 225 226 228 234 238 243 237 234 230 232 232 230 227 229 226 235 238 240 239 239 239 239 248 250 249 245 243 239 233 230
141 143 148 158 173 205 238 250 250 242 249 237 237 237 236 232 231 241 242 237 233 228 223 221 226 214 219 219 238 246 245 242 242 243 244 243 250 252 250 249 245 239 235
108 117 134 153 155 268 280 284 285 278 264 255 255 254 240 236 234 239 240 237 229 214 200 192 186 183 203 210 237 253 250 249 249 250 250 248 247 252 254 254 251 245 241
63 71 63 12 298 295 297 290 279 276 270 266 267 265 252 235 227 227 231 228 214 202 195 191 172 178 192 216 246 252 253 252 254 259 256 254 249 250 253 258 257 255 253
61 49 41 291 297 287 285 280 272 278 289 302 284 282 254 224 225 214 218 220 199 191 191 184 173 178 188 204 250 264 265 265 259 251 254 257 254 254 252 257 258 261 259
61 41 21 359 339 337 305 275 274 305 320 329 302 305 285 248 229 217 220 213 199 196 199 186 169 179 190 169 157 316 312 284 272 247 249 254 269 279 277 270 262 261 264
45 36 35 21 349 347 333 296 278 253 274 279 305 306 273 258 245 232 219 214 205 195 195 191 176 169 184 166 151 109 340 341 342 15 334 273 307 317 323 316 295 277 272
41 39 56 36 17 356 345 344 349 352 344 355 335 320 307 284 257 251 240 227 216 203 201 199 187 177 183 191 182 157 160 236 305 320 324 327 324 316 316 310 296 289 283
324 213 91 67 40 13 25 65 63 50 3 335 322 318 315 313 299 276 256 240 229 219 215 211 198 188 171 184 195 198 178 166 185 307 311 312 308 295 300 302 301 295 288
290 277 156 117 71 26 91 110 103 98 211 283 320 351 348 344 341 332 297 254 237 224 220 217 205 200 192 184 180 170 170 175 185 217 278 302 304 279 280 286 288 289 291
285 280 270 252 247 238 194 171 159 164 179 166 19 7 350 333 334 344 340 328 299 262 236 223 215 210 208 200 192 184 176 175 184 195 236 272 291 286 287 281 280 285 292